Regional Weather Roundup
Issued by NWS Cleveland, OH

Home | Current Version | Previous Version | Text Only | Print | Product List | Glossary Off
Versions: 1 2 3 4 5 6 7 8 9 10 11 12 13 14 15 16 17 18 19 20 21 22 23 24 25 26 27 28 29 30 31 32 33 34 35 36 37 38 39 40 41 42 43 44 45 46 47 48 49 50

986
ASUS41 KCLE 251912
RWRCLE
OHIO REGIONAL WEATHER ROUNDUP
NATIONAL WEATHER SERVICE WILMINGTON, OH
300 PM EDT MON SEP 25 2017

NOTE: "FAIR" INDICATES FEW OR NO CLOUDS BELOW 12,000 FEET WITH NO
SIGNIFICANT WEATHER AND/OR OBSTRUCTIONS TO VISIBILITY.

OHZ001>008-015>018-024>027-034-035-043-044-252000-
   NORTHWEST OHIO

CITY           SKY/WX    TMP DP  RH WIND       PRES   REMARKS
DEFIANCE       FAIR      88  59  37 SE6       30.01F
FINDLAY        FAIR      89  61  38 E5        30.01F
TOLEDO EXPRESS FAIR      91  64  40 CALM      30.01F HX  92
TOLEDO EXEC    FAIR      90  62  39 NE6       30.02F HX  90
LIMA           CLOUDY    89  61  38 NE7       30.02F
$$

OHZ009>014-019>023-028>033-038-089-252000-
   NORTHEAST OHIO

CITY           SKY/WX    TMP DP  RH WIND       PRES   REMARKS
CLE-HOPKINS    PTSUNNY   92  57  30 VRB7      30.04F HX  90
CLE-LAKEFRONT  FAIR      81  71  71 NE8       30.02F
CUY CO. ARPT   MOSUNNY   90  63  40 NW12      30.04F HX  90
LORAIN-ELYRIA  FAIR      88  57  34 SE7       30.03F
ASHTABULA      FAIR      89  61  38 S8        30.06F
AKRON-CANTON   PTSUNNY   89  58  34 S7        30.06F
WOOSTER        FAIR      85  61  44 CALM      30.05F
MANSFIELD      FAIR      87  62  43 SE7       30.06F
YOUNGSTOWN     CLOUDY    86  65  49 E6        30.07F
$$

OHZ042-051>053-060>062-070>072-077>081-252000-
  SOUTHWEST OHIO

CITY           SKY/WX    TMP DP  RH WIND       PRES   REMARKS
CINC-COVINGTON PTSUNNY   88  62  41 VRB5      30.02F
CINC-LUNKEN    FAIR      86  66  51 S3        30.01F
HAMILTON       FAIR      88  63  43 CALM      30.02F
DAYTON         PTSUNNY   86  59  39 SW6       30.03F
WRIGHT-PAT AFB FAIR      88  58  36 W5        30.02F
DAYTON GENERAL FAIR      86  58  38 VRB3      30.02F
WILMINGTON     FAIR      88  63  43 VRB6      30.03F
$$

OHZ036-037-039>041-045>050-054>059-063>069-073>076-082>088-252000-
  CENTRAL AND SOUTHEAST OHIO

CITY           SKY/WX    TMP DP  RH WIND       PRES   REMARKS
COLUMBUS       PTSUNNY   88  63  43 CALM      30.02F
OSU AIRPORT    FAIR      88  63  43 CALM      30.02F
BOLTON FIELD   SUNNY     88  63  42 W10       30.04F
RICKENBACK AFB FAIR      88  62  41 CALM      30.01F
NEWARK         FAIR      88  64  44 SE6       30.03F
MARION         PTSUNNY   88  60  38 S9        30.03F
LANCASTER      FAIR      86  65  49 CALM      30.03F
ZANESVILLE     FAIR      88  62  41 SE9       30.03F
NEW PHILLY     FAIR      90  59  35 SE6       30.04F
$$




USA.gov is the U.S. government's official web portal to all federal, state and local government web resources and services.